sat.trackr.live / text

‹ back to catalog

GEESAT-3 01

NORAD 61011 · 2024-159A

PAYLOAD ACTIVE UNKNOWN

§ Identity

Operator
Country
PRC
Launch date
2024-09-05
Launch site
TAISC
Launch vehicle
Mass (kg)
RCS (m²)

External: N2YO · Heavens-Above · Gunter

§ Orbital elements

Epoch: 2026-09-22T19:43:13.701504Z

Period
97.00 min
Inclination
50.0021°
Eccentricity
0.0002816
Mean motion
14.84497893 rev/d
Perigee alt
613.2 km
Apogee alt
617.1 km
Semi-major
6,993.3 km
B*
1.6755e-4
RAAN
350.1284°
Arg perigee
257.6963°
Mean anomaly
102.3661°
Rev number
11,118

§ Raw data

GEESAT-3 011 61011U 24159A   26265.82168636  .00001199  00000+0  16755-3 0  99972 61011  50.0021 350.1284 0002816 257.6963 102.3661 14.84497893111185

JSON: /api/v1/satellites/61011 · /tle

For live sub-satellite position, see the globe view (requires WebGL).

§ Visibility from observer

Set your observer location to see the next 7 days of passes ≥ 10°. The values pass through the URL so the page stays shareable.

No JS? Fill the form by hand. The geolocation button needs JavaScript.